Weather History for VDSR - September, 2013

Change the Weather History Date:

Saturday, September 14, 2013

  Actual Average Record
Temperature  
Mean Temperature 80 °F -  
Max Temperature 82 °F - - ()
Min Temperature 77 °F - - ()
Cooling Degree Days 14    
Growing Degree Days 30 (Base 50)    
Moisture  
Dew Point 74 °F    
Average Humidity 84    
Maximum Humidity 94    
Minimum Humidity 21    
Precipitation  
Precipitation 0.00 in - - ()
Sea Level Pressure  
Sea Level Pressure 29.74 in    
Wind  
Wind Speed 2 mph ()    
Max Wind Speed 12 mph    
Max Gust Speed -    
Visibility 5.9 miles    
Events Rain    
T = Trace of Precipitation, MM = Missing Value Source: Averaged Metar Reports

Daily Weather History Graph

Daily Weather History Graph

Search for Another Location

Airport or City:

Trip Planner

Search our weather history database for the weather conditions in past years. The results will help you decide how hot, cold, wet, or windy it might be!

Date:

Astronomy

Sep. 14, 2013 Rise Set
Actual Time 5:53 AM ICT 6:06 PM ICT
Civil Twilight 5:32 AM ICT 6:27 PM ICT
Nautical Twilight 5:07 AM ICT 6:52 PM ICT
Astronomical Twilight 4:42 AM ICT 7:17 PM ICT
Moon 1:41 PM ICT (9/14) 12:32 AM ICT (9/14)
Length of Visible Light 12h 55m
Length of Day
12h 13m
Waxing Gibbous, 67% of the Moon is Illuminated
Sep 14
Waxing Gibbous
Sep 19
Full
Sep 27
Last Quarter
Oct 5
New
Oct 12
First Quarter

Hourly Weather History & Observations

Time (ICT) Temp. Heat Index Dew Point Humidity Pressure Visibility Wind Dir Wind Speed Gust Speed Precip Events Conditions
12:00 AM 78.8 °F - 77.0 °F 94% 29.77 in 5.6 mi Calm Calm - N/A   Mostly Cloudy
12:30 AM 78.8 °F - 77.0 °F 94% 29.77 in 5.6 mi Calm Calm - N/A   Mostly Cloudy
1:00 AM 78.8 °F - 77.0 °F 94% 29.77 in 5.6 mi Variable 2.3 mph - N/A   Mostly Cloudy
7:00 AM 78.8 °F - 35.6 °F 21% 29.77 in 5.6 mi Calm Calm - N/A Rain Light Rain
7:30 AM 78.8 °F - 77.0 °F 94% 29.77 in 5.0 mi West 3.5 mph - N/A Rain Light Rain
8:00 AM 78.8 °F - 77.0 °F 94% 29.80 in 5.6 mi West 4.6 mph - N/A Rain Light Rain
8:30 AM 78.8 °F - 75.2 °F 89% 29.83 in 5.0 mi SSW 3.5 mph - N/A Rain Light Rain
9:00 AM 78.8 °F - 75.2 °F 89% 29.83 in 6.2 mi SSE 3.5 mph - N/A   Mostly Cloudy
9:30 AM 77.0 °F - 75.2 °F 94% 29.83 in 6.2 mi SSE 1.2 mph - N/A   Mostly Cloudy
10:00 AM 78.8 °F - 75.2 °F 89% 29.83 in 6.2 mi SW 1.2 mph - N/A   Mostly Cloudy
10:30 AM 78.8 °F - 75.2 °F 89% 29.83 in 6.2 mi SSW 6.9 mph - N/A   Mostly Cloudy
11:00 AM 78.8 °F - 75.2 °F 89% 29.80 in 6.2 mi SW 1.2 mph - N/A Rain Light Rain
11:30 AM 78.8 °F - 75.2 °F 89% 29.80 in 6.2 mi Calm Calm - N/A Rain Light Rain
12:00 PM 78.8 °F - 75.2 °F 89% 29.80 in 6.2 mi Calm Calm - N/A Rain Light Rain
12:30 PM 78.8 °F - 75.2 °F 89% 29.77 in 6.2 mi SW 8.1 mph - N/A   Mostly Cloudy
1:00 PM 80.6 °F 86.2 °F 75.2 °F 84% 29.74 in 6.2 mi Calm Calm - N/A   Mostly Cloudy
1:30 PM 80.6 °F 86.2 °F 75.2 °F 84% 29.71 in 6.2 mi West 6.9 mph - N/A   Mostly Cloudy
2:00 PM 82.4 °F 89.5 °F 75.2 °F 79% 29.71 in 6.2 mi West 6.9 mph - N/A   Mostly Cloudy
2:30 PM 82.4 °F 89.5 °F 75.2 °F 79% 29.68 in 6.2 mi West 11.5 mph - N/A   Mostly Cloudy
3:00 PM 82.4 °F 89.5 °F 75.2 °F 79% 29.68 in 6.2 mi West 8.1 mph - N/A   Mostly Cloudy
3:30 PM 82.4 °F 89.5 °F 75.2 °F 79% 29.68 in 6.2 mi West 6.9 mph - N/A   Scattered Clouds
4:00 PM 82.4 °F 89.5 °F 75.2 °F 79% 29.68 in 6.2 mi West 2.3 mph - N/A   Scattered Clouds
4:30 PM 82.4 °F 90.9 °F 77.0 °F 84% 29.68 in 6.2 mi West 11.5 mph - N/A   Scattered Clouds
5:00 PM 82.4 °F 89.5 °F 75.2 °F 79% 29.65 in 6.2 mi Calm Calm - N/A   Scattered Clouds
5:30 PM 82.4 °F 89.5 °F 75.2 °F 79% 29.68 in 6.2 mi Calm Calm - N/A   Scattered Clouds
6:00 PM 82.4 °F 89.5 °F 75.2 °F 79% 29.68 in 6.2 mi Calm Calm - N/A   Scattered Clouds
6:30 PM 80.6 °F 86.2 °F 75.2 °F 84% 29.71 in 6.2 mi Calm Calm - N/A   Scattered Clouds
7:00 PM 80.6 °F 86.2 °F 75.2 °F 84% 29.71 in 6.2 mi Calm Calm - N/A   Scattered Clouds
7:30 PM 80.6 °F 86.2 °F 75.2 °F 84% 29.71 in 6.2 mi Calm Calm - N/A   Partly Cloudy
8:00 PM 80.6 °F 86.2 °F 75.2 °F 84% 29.71 in 6.2 mi Calm Calm - N/A   Scattered Clouds
8:30 PM 80.6 °F 86.2 °F 75.2 °F 84% 29.71 in 5.6 mi Calm Calm - N/A   Scattered Clouds
9:00 PM 80.6 °F 86.2 °F 75.2 °F 84% 29.74 in 5.6 mi Calm Calm - N/A   Scattered Clouds
9:30 PM 80.6 °F 86.2 °F 75.2 °F 84% 29.74 in 5.6 mi Calm Calm - N/A   Scattered Clouds
10:00 PM 80.6 °F 86.2 °F 75.2 °F 84% 29.74 in 5.6 mi Calm Calm - N/A   Scattered Clouds
10:30 PM 80.6 °F 86.2 °F 75.2 °F 84% 29.74 in 5.6 mi Calm Calm - N/A   Scattered Clouds
11:00 PM 80.6 °F 86.2 °F 75.2 °F 84% 29.74 in 5.6 mi Calm Calm - N/A   Scattered Clouds
11:30 PM 80.6 °F 86.2 °F 75.2 °F 84% 29.74 in 5.6 mi Calm Calm - N/A   Scattered Clouds